AUR3BM EGBB-EGJB

Flight info

Callsign AUR3BM
Flight time 0h 56m
Altitude 12000
Route ADMEX Y321 PEPIS Q41 SAM N63 LELNA
Aircraft AT76/M-SDFGIRY/S

Departure

Time 2026-04-27 16:08
Airport Birmingham Airport (EGBB)

Arrival

Time 2026-04-27 17:04
Airport Guernsey Airport (EGJB)
Time Latitude Longitude Altitude Speed Heading
2026-04-27 15:45 52.45224 -1.73640 320 ft 0 kts 326°
2026-04-27 15:59 52.45214 -1.73630 320 ft 4 kts 326°
2026-04-27 15:59 52.45196 -1.73610 317 ft 4 kts 323°
2026-04-27 15:59 52.45179 -1.73579 320 ft 4 kts 287°
2026-04-27 16:00 52.45178 -1.73538 320 ft 4 kts 248°
2026-04-27 16:00 52.45178 -1.73532 320 ft 4 kts 236°
2026-04-27 16:00 52.45166 -1.73563 319 ft 1 kts 236°
2026-04-27 16:03 52.45154 -1.73591 320 ft 6 kts 236°
2026-04-27 16:03 52.45125 -1.73662 320 ft 9 kts 236°
2026-04-27 16:04 52.45075 -1.73738 320 ft 11 kts 200°
2026-04-27 16:04 52.44990 -1.73695 320 ft 16 kts 145°
2026-04-27 16:04 52.44891 -1.73652 320 ft 15 kts 197°
2026-04-27 16:04 52.44779 -1.73707 320 ft 17 kts 197°
2026-04-27 16:05 52.44670 -1.73683 320 ft 17 kts 144°
2026-04-27 16:05 52.44565 -1.73566 320 ft 19 kts 146°
2026-04-27 16:05 52.44456 -1.73445 320 ft 19 kts 146°
2026-04-27 16:05 52.44374 -1.73425 318 ft 8 kts 223°
2026-04-27 16:06 52.44363 -1.73450 320 ft 0 kts 237°
2026-04-27 16:06 52.44357 -1.73465 320 ft 4 kts 236°
2026-04-27 16:06 52.44335 -1.73517 321 ft 6 kts 236°
2026-04-27 16:07 52.44314 -1.73595 319 ft 11 kts 279°
2026-04-27 16:07 52.44343 -1.73644 321 ft 0 kts 325°
2026-04-27 16:07 52.44354 -1.73657 321 ft 17 kts 325°
2026-04-27 16:08 52.44646 -1.73981 323 ft 82 kts 326°
2026-04-27 16:08 52.45250 -1.74642 425 ft 116 kts 328°
2026-04-27 16:08 52.45921 -1.75352 1064 ft 114 kts 327°
2026-04-27 16:08 52.46567 -1.76109 1703 ft 114 kts 325°
2026-04-27 16:09 52.47245 -1.76928 1951 ft 132 kts 327°
2026-04-27 16:09 52.49007 -1.78862 2429 ft 165 kts 329°
2026-04-27 16:09 52.50039 -1.79671 2834 ft 163 kts 357°
2026-04-27 16:10 52.51443 -1.77058 3663 ft 181 kts 76°
2026-04-27 16:10 52.51961 -1.72988 4514 ft 184 kts 73°
2026-04-27 16:11 52.52211 -1.70937 4946 ft 183 kts 75°
2026-04-27 16:11 52.52374 -1.66829 5724 ft 190 kts 112°
2026-04-27 16:12 52.50748 -1.63371 6538 ft 195 kts 133°
2026-04-27 16:12 52.49784 -1.61818 6959 ft 194 kts 136°
2026-04-27 16:12 52.47758 -1.58716 7654 ft 202 kts 136°
2026-04-27 16:13 52.46724 -1.57115 7970 ft 206 kts 136°
2026-04-27 16:13 52.44449 -1.54251 8715 ft 206 kts 151°
2026-04-27 16:13 52.43190 -1.53098 9079 ft 208 kts 153°
2026-04-27 16:14 52.40631 -1.50748 9753 ft 213 kts 152°
2026-04-27 16:14 52.38058 -1.48245 10429 ft 215 kts 151°
2026-04-27 16:15 52.35442 -1.45905 11034 ft 215 kts 168°
2026-04-27 16:15 52.32486 -1.45102 11665 ft 216 kts 178°
2026-04-27 16:16 52.29472 -1.44416 12164 ft 225 kts 176°
2026-04-27 16:16 52.26220 -1.43521 12269 ft 248 kts 174°
2026-04-27 16:17 52.22697 -1.42509 12285 ft 265 kts 174°
2026-04-27 16:17 52.18992 -1.41456 12290 ft 275 kts 174°
2026-04-27 16:18 52.15184 -1.40382 12290 ft 281 kts 174°
2026-04-27 16:18 52.11314 -1.39292 12290 ft 284 kts 174°
2026-04-27 16:19 52.09366 -1.38740 12289 ft 285 kts 174°
2026-04-27 16:19 52.07412 -1.38194 12294 ft 286 kts 174°
2026-04-27 16:20 52.01535 -1.36540 12232 ft 287 kts 173°
2026-04-27 16:20 51.99771 -1.36045 12236 ft 287 kts 174°
2026-04-27 16:20 51.95864 -1.34953 12238 ft 287 kts 173°
2026-04-27 16:21 51.93899 -1.34400 12242 ft 287 kts 173°
2026-04-27 16:21 51.87974 -1.32746 12233 ft 288 kts 173°
2026-04-27 16:22 51.85999 -1.32201 12233 ft 288 kts 173°
2026-04-27 16:22 51.82058 -1.31104 12235 ft 287 kts 173°
2026-04-27 16:22 51.80090 -1.30559 12229 ft 287 kts 173°
2026-04-27 16:23 51.78124 -1.30012 12235 ft 286 kts 173°
2026-04-27 16:23 51.74202 -1.28925 12241 ft 286 kts 173°
2026-04-27 16:23 51.72241 -1.28382 12239 ft 286 kts 173°
2026-04-27 16:24 51.70275 -1.27841 12235 ft 286 kts 173°
2026-04-27 16:24 51.66351 -1.26753 12238 ft 286 kts 173°
2026-04-27 16:25 51.62436 -1.25677 12235 ft 285 kts 173°
2026-04-27 16:25 51.58536 -1.24603 12237 ft 284 kts 173°
2026-04-27 16:26 51.54649 -1.23534 12236 ft 283 kts 173°
2026-04-27 16:26 51.50765 -1.22470 12236 ft 283 kts 173°
2026-04-27 16:27 51.46881 -1.21966 12236 ft 279 kts 187°
2026-04-27 16:27 51.41089 -1.22688 12231 ft 280 kts 187°
2026-04-27 16:28 51.37203 -1.23006 12231 ft 280 kts 187°
2026-04-27 16:28 51.33316 -1.23335 12234 ft 280 kts 186°
2026-04-27 16:29 51.27469 -1.23791 12231 ft 280 kts 186°
2026-04-27 16:30 51.23571 -1.24107 12233 ft 281 kts 186°
2026-04-27 16:30 51.19669 -1.24441 12237 ft 279 kts 188°
2026-04-27 16:31 51.14066 -1.26711 12234 ft 277 kts 200°
2026-04-27 16:31 51.10345 -1.28356 12218 ft 277 kts 198°
2026-04-27 16:32 51.06638 -1.29914 12218 ft 278 kts 198°
2026-04-27 16:32 51.04769 -1.30697 12212 ft 278 kts 198°
2026-04-27 16:33 51.01028 -1.32263 12210 ft 278 kts 198°
2026-04-27 16:33 50.99404 -1.32947 12211 ft 278 kts 198°
2026-04-27 16:33 50.97533 -1.33730 12209 ft 278 kts 198°
2026-04-27 16:33 50.95667 -1.34517 12209 ft 276 kts 199°
2026-04-27 16:34 50.93891 -1.35613 12209 ft 274 kts 210°
2026-04-27 16:34 50.92206 -1.37012 12214 ft 273 kts 212°
2026-04-27 16:34 50.90540 -1.38463 12210 ft 273 kts 212°
2026-04-27 16:34 50.88860 -1.39889 12211 ft 274 kts 211°
2026-04-27 16:35 50.87163 -1.41256 12201 ft 274 kts 210°
2026-04-27 16:35 50.85461 -1.42612 12206 ft 273 kts 210°
2026-04-27 16:35 50.82067 -1.45313 12212 ft 273 kts 210°
2026-04-27 16:36 50.80371 -1.46661 12214 ft 273 kts 210°
2026-04-27 16:36 50.78676 -1.48011 12217 ft 273 kts 210°
2026-04-27 16:36 50.76981 -1.49357 12218 ft 273 kts 210°
2026-04-27 16:36 50.75288 -1.50706 12234 ft 273 kts 210°
2026-04-27 16:37 50.73591 -1.52047 12235 ft 273 kts 210°
2026-04-27 16:37 50.71894 -1.53381 12235 ft 272 kts 210°
2026-04-27 16:37 50.70202 -1.54725 12236 ft 272 kts 210°
2026-04-27 16:37 50.68509 -1.56065 12236 ft 272 kts 210°
2026-04-27 16:38 50.66835 -1.57392 12238 ft 273 kts 210°
2026-04-27 16:38 50.65139 -1.58730 12237 ft 273 kts 210°
2026-04-27 16:38 50.63443 -1.60070 12232 ft 272 kts 210°
2026-04-27 16:38 50.61750 -1.61399 12233 ft 271 kts 210°
2026-04-27 16:39 50.60066 -1.62725 12234 ft 270 kts 210°
2026-04-27 16:39 50.58362 -1.64069 12238 ft 270 kts 210°
2026-04-27 16:39 50.56683 -1.65388 12237 ft 269 kts 210°
2026-04-27 16:39 50.55031 -1.66688 12238 ft 269 kts 210°
2026-04-27 16:40 50.53355 -1.68002 12241 ft 269 kts 210°
2026-04-27 16:40 50.51680 -1.69317 12240 ft 269 kts 210°
2026-04-27 16:40 50.50007 -1.70631 12241 ft 269 kts 209°
2026-04-27 16:40 50.48333 -1.71940 12241 ft 269 kts 210°
2026-04-27 16:41 50.46661 -1.73250 12243 ft 269 kts 210°
2026-04-27 16:41 50.44988 -1.74557 12243 ft 268 kts 210°
2026-04-27 16:41 50.43317 -1.75863 12243 ft 268 kts 210°
2026-04-27 16:41 50.41645 -1.77171 12244 ft 268 kts 209°
2026-04-27 16:42 50.39974 -1.78473 12240 ft 268 kts 210°
2026-04-27 16:42 50.38306 -1.79770 12242 ft 267 kts 209°
2026-04-27 16:42 50.36642 -1.81067 12243 ft 267 kts 210°
2026-04-27 16:42 50.34981 -1.82362 12243 ft 267 kts 209°
2026-04-27 16:43 50.33319 -1.83653 12243 ft 266 kts 210°
2026-04-27 16:43 50.31662 -1.84945 12239 ft 266 kts 209°
2026-04-27 16:43 50.30002 -1.86230 12242 ft 266 kts 209°
2026-04-27 16:43 50.28341 -1.87520 12243 ft 266 kts 209°
2026-04-27 16:44 50.26681 -1.88809 12243 ft 267 kts 209°
2026-04-27 16:44 50.25017 -1.90097 12243 ft 267 kts 209°
2026-04-27 16:44 50.23357 -1.91385 12243 ft 267 kts 209°
2026-04-27 16:44 50.21692 -1.92670 12246 ft 267 kts 209°
2026-04-27 16:45 50.20031 -1.93955 12246 ft 267 kts 209°
2026-04-27 16:45 50.18366 -1.95241 12246 ft 267 kts 209°
2026-04-27 16:45 50.16703 -1.96525 12243 ft 266 kts 209°
2026-04-27 16:45 50.15042 -1.97801 12245 ft 266 kts 209°
2026-04-27 16:46 50.13387 -1.99077 12245 ft 266 kts 209°
2026-04-27 16:46 50.11909 -2.00217 12246 ft 265 kts 208°
2026-04-27 16:46 50.10254 -2.01490 12246 ft 265 kts 209°
2026-04-27 16:46 50.08601 -2.02763 12247 ft 265 kts 209°
2026-04-27 16:47 50.07504 -2.03604 12249 ft 265 kts 208°
2026-04-27 16:47 50.05849 -2.04874 12249 ft 265 kts 209°
2026-04-27 16:47 50.04198 -2.06144 12249 ft 265 kts 209°
2026-04-27 16:47 50.02542 -2.07411 12249 ft 265 kts 209°
2026-04-27 16:48 50.00891 -2.08678 12249 ft 265 kts 209°
2026-04-27 16:48 49.99417 -2.09810 12249 ft 265 kts 208°
2026-04-27 16:48 49.97416 -2.11843 12250 ft 258 kts 227°
2026-04-27 16:49 49.95445 -2.15387 12249 ft 259 kts 233°
2026-04-27 16:49 49.94300 -2.17561 12246 ft 260 kts 232°
2026-04-27 16:49 49.93125 -2.19699 12248 ft 261 kts 231°
2026-04-27 16:49 49.91933 -2.21777 12242 ft 261 kts 230°
2026-04-27 16:50 49.90725 -2.23880 12242 ft 261 kts 230°
2026-04-27 16:50 49.89526 -2.25973 12238 ft 253 kts 231°
2026-04-27 16:50 49.88381 -2.27971 12074 ft 243 kts 230°
2026-04-27 16:50 49.87264 -2.29924 11793 ft 242 kts 230°
2026-04-27 16:51 49.86152 -2.31867 11526 ft 240 kts 230°
2026-04-27 16:51 49.85051 -2.33786 11275 ft 237 kts 230°
2026-04-27 16:51 49.83958 -2.35688 11029 ft 235 kts 230°
2026-04-27 16:51 49.82872 -2.37573 10790 ft 234 kts 230°
2026-04-27 16:52 49.81791 -2.39447 10548 ft 233 kts 230°
2026-04-27 16:52 49.80710 -2.41320 10285 ft 233 kts 230°
2026-04-27 16:52 49.79628 -2.43189 10007 ft 233 kts 230°
2026-04-27 16:52 49.78544 -2.45059 9715 ft 233 kts 230°
2026-04-27 16:53 49.77460 -2.46928 9427 ft 234 kts 230°
2026-04-27 16:53 49.76377 -2.48804 9140 ft 234 kts 230°
2026-04-27 16:53 49.75293 -2.50680 8856 ft 234 kts 230°
2026-04-27 16:53 49.74209 -2.52556 8576 ft 234 kts 230°
2026-04-27 16:54 49.73121 -2.54440 8298 ft 235 kts 230°
2026-04-27 16:54 49.72035 -2.56330 8025 ft 235 kts 230°
2026-04-27 16:54 49.70945 -2.58225 7743 ft 236 kts 230°
2026-04-27 16:54 49.69849 -2.60124 7473 ft 237 kts 230°
2026-04-27 16:55 49.68756 -2.62037 7206 ft 238 kts 230°
2026-04-27 16:55 49.67659 -2.63951 6947 ft 238 kts 230°
2026-04-27 16:55 49.66576 -2.65850 6680 ft 239 kts 230°
2026-04-27 16:55 49.65475 -2.67781 6392 ft 240 kts 230°
2026-04-27 16:56 49.64377 -2.69714 6109 ft 240 kts 230°
2026-04-27 16:56 49.63280 -2.71651 5827 ft 239 kts 230°
2026-04-27 16:56 49.62185 -2.73585 5553 ft 239 kts 230°
2026-04-27 16:56 49.61092 -2.75518 5269 ft 239 kts 230°
2026-04-27 16:57 49.60005 -2.77444 5016 ft 238 kts 230°
2026-04-27 16:57 49.58921 -2.79361 4751 ft 237 kts 230°
2026-04-27 16:57 49.57841 -2.81269 4501 ft 235 kts 230°
2026-04-27 16:57 49.56588 -2.82821 4243 ft 233 kts 201°
2026-04-27 16:58 49.55017 -2.83244 3997 ft 228 kts 183°
2026-04-27 16:58 49.53431 -2.83417 3751 ft 229 kts 182°
2026-04-27 16:58 49.51840 -2.83545 3502 ft 230 kts 181°
2026-04-27 16:58 49.50243 -2.83647 3268 ft 230 kts 180°
2026-04-27 16:59 49.48650 -2.83730 3045 ft 229 kts 180°
2026-04-27 16:59 49.47060 -2.83781 2827 ft 228 kts 179°
2026-04-27 16:59 49.45482 -2.83829 2643 ft 223 kts 179°
2026-04-27 16:59 49.43991 -2.83822 2563 ft 208 kts 169°
2026-04-27 17:00 49.42472 -2.81663 2524 ft 171 kts 94°
2026-04-27 17:00 49.42584 -2.79425 2516 ft 151 kts 79°
2026-04-27 17:00 49.42716 -2.77875 2421 ft 141 kts 79°
2026-04-27 17:01 49.42852 -2.76478 2307 ft 124 kts 79°
2026-04-27 17:01 49.42974 -2.75180 2118 ft 121 kts 79°
2026-04-27 17:01 49.43086 -2.73924 1950 ft 116 kts 78°
2026-04-27 17:01 49.43178 -2.72716 1801 ft 113 kts 82°
2026-04-27 17:02 49.43195 -2.71512 1655 ft 113 kts 85°
2026-04-27 17:02 49.43212 -2.70307 1494 ft 112 kts 84°
2026-04-27 17:02 49.43241 -2.69121 1346 ft 111 kts 84°
2026-04-27 17:02 49.43278 -2.67944 1198 ft 110 kts 83°
2026-04-27 17:03 49.43310 -2.66770 1066 ft 109 kts 82°
2026-04-27 17:03 49.43344 -2.65616 918 ft 107 kts 83°
2026-04-27 17:03 49.43375 -2.64476 735 ft 105 kts 82°
2026-04-27 17:03 49.43425 -2.63358 631 ft 107 kts 83°
2026-04-27 17:04 49.43439 -2.62231 452 ft 106 kts 81°
2026-04-27 17:04 49.43469 -2.61154 316 ft 97 kts 84°
2026-04-27 17:04 49.43494 -2.60279 308 ft 70 kts 86°
2026-04-27 17:04 49.43508 -2.59810 322 ft 23 kts 87°
2026-04-27 17:05 49.43513 -2.59629 324 ft 13 kts 88°
2026-04-27 17:05 49.43517 -2.59488 330 ft 14 kts 87°
2026-04-27 17:05 49.43521 -2.59350 332 ft 10 kts 88°
2026-04-27 17:05 49.43520 -2.59239 331 ft 12 kts 105°
2026-04-27 17:06 49.43449 -2.59197 330 ft 12 kts 177°
2026-04-27 17:06 49.43375 -2.59248 331 ft 14 kts 252°
2026-04-27 17:06 49.43369 -2.59381 330 ft 13 kts 267°
2026-04-27 17:06 49.43364 -2.59532 328 ft 14 kts 268°
2026-04-27 17:07 49.43360 -2.59658 326 ft 10 kts 266°
2026-04-27 17:07 49.43312 -2.59687 325 ft 7 kts 177°
2026-04-27 17:07 49.43270 -2.59685 325 ft 5 kts 178°
2026-04-27 17:07 49.43255 -2.59684 324 ft 0 kts 178°